Location: Mentone
(34.5413°N, 85.5351°W)
Time: 09:53:04
(UTC-05:00)

ATLAS 5 CENTAUR R/B - Pass Details

Date: 01 July 2018
Orbit: 598 x 1061 km, 63.4° (Epoch: 17 September)

Event Time Altitude Azimuth Distance (km) Brightness Sun altitude
Rises 20:18:31 0° 210° (SSW) 2,828 4.9 -4.3°
Reaches altitude 10° 20:20:42 10° 210° (SSW) 1,942 4.1 -4.7°
Maximum altitude 20:25:03 89° 296° (WNW) 633 1.7 -5.5°
Drops below altitude 10° 20:29:46 10° 31° (NNE) 2,103 4.3 -6.3°
Sets 20:32:13 0° 31° (NNE) 3,085 5.2 -6.7°
